Regional Weather Roundup
Issued by NWS

Home | Current Version | Previous Version | Text Only | Print | Product List | Glossary Off
Versions: 1 2 3 4 5 6 7 8 9 10 11 12 13 14 15 16 17 18 19 20 21 22 23 24 25 26 27 28 29 30 31 32 33 34 35 36 37 38 39 40 41 42 43 44 45 46 47 48 49 50

000
ASUS45 KBOI 300310
RWRID
WEATHER ROUNDUP FOR IDAHO
NATIONAL WEATHER SERVICE BOISE ID
800 PM MST THU JAN 29 2015

NOTE: "FAIR" INDICATES FEW OR NO CLOUDS BELOW 12000 FEET
WITH NO SIGNIFICANT WEATHER AND/OR OBSTRUCTIONS TO VISIBILITY

IDZ012-014-300400-
SOUTHWEST IDAHO


CITY           SKY/WX    TMP DP  RH WIND       PRES   REMARKS
BOISE          CLOUDY    40  34  79 NW8       30.33F WCI  34
CALDWELL       CLOUDY    43  32  65 N3        30.36S
MOUNTAIN HOME  CLOUDY    40  35  81 NW8       30.32S WCI  34
$$

IDZ016-017-300400-
SOUTHCENTRAL IDAHO


CITY           SKY/WX    TMP DP  RH WIND       PRES   REMARKS
BURLEY         CLOUDY    37  32  82 E8        30.27S WCI  31
JEROME         CLOUDY    36  31  82 NE9       30.29S WCI  29
TWIN FALLS     CLOUDY    38  33  82 W3        30.28S
$$

IDZ019>023-300400-
SOUTHEAST IDAHO


CITY           SKY/WX    TMP DP  RH WIND       PRES   REMARKS
IDAHO FALLS    CLOUDY    32  28  85 N6        30.31F WCI  26
POCATELLO      CLEAR     32  30  92 N6        30.30F WCI  26
REXBURG        MOCLDY    29  26  89 NE7       30.32S WCI  22
$$

IDZ006-010-011-018-031-032-300400-
CENTRAL IDAHO MOUNTAINS


CITY           SKY/WX    TMP DP  RH WIND       PRES   REMARKS
MCCALL         CLEAR     26  24  92 NE3       30.28S
HAILEY         MOCLDY    30  27  86 W8        30.31S WCI  23
STANLEY          N/A     14  10  84 S3        30.32R
SALMON         PTCLDY    21  18  86 CALM      30.39S
CHALLIS        CLOUDY    30  25  81 CALM      30.36F
$$

IDZ002-004-006-007-026-300400-
NORTHERN IDAHO


CITY           SKY/WX    TMP DP  RH WIND       PRES   REMARKS
LEWISTON       MOCLDY    37  34  89 CALM      30.38S
LOWELL           N/A     35  33  92 N3        30.41R
COEUR D`ALENE  CLEAR     30  27  86 E6        30.36R WCI  24
MULLAN PASS    CLEAR     30  22  72 W5        30.29S WCI  25
$$



USA.gov is the U.S. government's official web portal to all federal, state and local government web resources and services.